| time (UTC) | temp C | wind direction | speed KPH | gust KPH | rain 1hr cm | rain 24hr cm | rain mn cm | humidity % | barometer mb |
| 20260506013240 | 15 | 87 | 0.0 | 0.0 | 0.00 | 0.00 | 0.00 | 78 | 1037.2 |
| 20260506012239 | 16 | 87 | 0.0 | 0.0 | 0.00 | 0.00 | 0.00 | 78 | 1037.2 |
| 20260506011238 | 16 | 86 | 0.0 | 0.0 | 0.00 | 0.00 | 0.00 | 75 | 1036.9 |
| 20260506010233 | 16 | 86 | 0.0 | 0.0 | 0.00 | 0.00 | 0.00 | 75 | 1036.7 |
| 20260506005233 | 16 | 87 | 0.0 | 0.0 | 0.00 | 0.00 | 0.00 | 73 | 1036.8 |
| 20260506004233 | 17 | 86 | 0.0 | 0.0 | 0.00 | 0.00 | 0.00 | 72 | 1036.5 |
| 20260506003231 | 17 | 83 | 0.0 | 0.0 | 0.00 | 0.00 | 0.00 | 71 | 1036.5 |
| 20260506002229 | 17 | 93 | 0.0 | 0.0 | 0.00 | 0.00 | 0.00 | 69 | 1036.5 |
| 20260506001229 | 18 | 92 | 0.0 | 0.0 | 0.00 | 0.00 | 0.00 | 68 | 1036.5 |
| 20260506000223 | 19 | 91 | 0.0 | 0.0 | 0.00 | 0.00 | 0.00 | 64 | 1036.3 |
| 20260505235224 | 20 | 88 | 0.0 | 0.0 | 0.00 | 0.00 | 0.00 | 61 | 1036.1 |
| 20260505234223 | 20 | 87 | 1.6 | 1.6 | 0.00 | 0.00 | 0.00 | 58 | 1036.1 |
| 20260505233218 | 20 | 67 | 1.6 | 3.2 | 0.00 | 0.00 | 0.00 | 58 | 1035.8 |
| 20260505232218 | 21 | 79 | 1.6 | 1.6 | 0.00 | 0.00 | 0.00 | 55 | 1035.8 |
| 20260505231214 | 21 | 86 | 0.0 | 0.0 | 0.00 | 0.00 | 0.00 | 49 | 1035.9 |
| 20260505230213 | 22 | 93 | 3.2 | 3.2 | 0.00 | 0.00 | 0.00 | 45 | 1035.9 |
| 20260505225213 | 23 | 102 | 0.0 | 1.6 | 0.00 | 0.00 | 0.00 | 43 | 1035.6 |
| 20260505224212 | 23 | 57 | 1.6 | 1.6 | 0.00 | 0.00 | 0.00 | 40 | 1035.6 |
| 20260505223211 | 24 | 229 | 8.0 | 9.7 | 0.00 | 0.00 | 0.00 | 39 | 1035.7 |
| 20260505222209 | 24 | 118 | 3.2 | 3.2 | 0.00 | 0.00 | 0.00 | 41 | 1035.4 |
| 20260505221209 | 24 | 143 | 3.2 | 3.2 | 0.00 | 0.00 | 0.00 | 39 | 1035.4 |
| 20260505220210 | 24 | 86 | 1.6 | 1.6 | 0.00 | 0.00 | 0.00 | 39 | 1035.3 |
| 20260505215205 | 24 | 33 | 3.2 | 3.2 | 0.00 | 0.00 | 0.00 | 40 | 1035.1 |
| 20260505214206 | 24 | 88 | 1.6 | 1.6 | 0.00 | 0.00 | 0.00 | 38 | 1035.3 |
| 20260505213200 | 24 | 113 | 0.0 | 1.6 | 0.00 | 0.00 | 0.00 | 40 | 1035.4 |
| 20260505212159 | 24 | 358 | 6.4 | 9.7 | 0.00 | 0.00 | 0.00 | 40 | 1035.2 |
| 20260505211159 | 24 | 306 | 4.8 | 8.0 | 0.00 | 0.00 | 0.00 | 37 | 1035.3 |
| 20260505210159 | 25 | 61 | 6.4 | 8.0 | 0.00 | 0.00 | 0.00 | 36 | 1035.4 |
| 20260505205154 | 25 | 282 | 4.8 | 8.0 | 0.00 | 0.00 | 0.00 | 35 | 1035.1 |
| 20260505204154 | 25 | 350 | 4.8 | 9.7 | 0.00 | 0.00 | 0.00 | 35 | 1035.1 |
| 20260505203154 | 25 | 44 | 4.8 | 4.8 | 0.00 | 0.00 | 0.00 | 36 | 1035.0 |
| 20260505202152 | 25 | 8 | 14.5 | 17.7 | 0.00 | 0.00 | 0.00 | 35 | 1035.0 |
| 20260505201152 | 25 | 19 | 8.0 | 11.3 | 0.00 | 0.00 | 0.00 | 34 | 1035.3 |
| 20260505200153 | 25 | 3 | 9.7 | 12.9 | 0.00 | 0.00 | 0.00 | 34 | 1034.9 |
| 20260505195152 | 26 | 70 | 9.7 | 16.1 | 0.00 | 0.00 | 0.00 | 34 | 1035.4 |
| 20260505194151 | 26 | 49 | 4.8 | 8.0 | 0.00 | 0.00 | 0.00 | 34 | 1035.0 |
| 20260505193150 | 26 | 164 | 4.8 | 4.8 | 0.00 | 0.00 | 0.00 | 36 | 1035.3 |
| 20260505192146 | 26 | 346 | 17.7 | 27.4 | 0.00 | 0.00 | 0.00 | 34 | 1035.3 |
| 20260505191142 | 26 | 335 | 12.9 | 22.5 | 0.00 | 0.00 | 0.00 | 36 | 1035.4 |
| 20260505190138 | 26 | 135 | 4.8 | 8.0 | 0.00 | 0.00 | 0.00 | 36 | 1035.6 |
| 20260505185137 | 26 | 297 | 14.5 | 16.1 | 0.00 | 0.00 | 0.00 | 37 | 1035.9 |
| 20260505184136 | 26 | 12 | 14.5 | 17.7 | 0.00 | 0.00 | 0.00 | 37 | 1036.1 |
| 20260505183131 | 25 | 24 | 8.0 | 12.9 | 0.00 | 0.00 | 0.00 | 37 | 1036.1 |
| 20260505182129 | 26 | 272 | 12.9 | 16.1 | 0.00 | 0.00 | 0.00 | 38 | 1036.2 |
| 20260505181129 | 26 | 307 | 8.0 | 11.3 | 0.00 | 0.00 | 0.00 | 39 | 1036.2 |
| 20260505180129 | 25 | 331 | 9.7 | 12.9 | 0.00 | 0.00 | 0.00 | 38 | 1036.2 |
| 20260505175127 | 26 | 354 | 19.3 | 27.4 | 0.00 | 0.00 | 0.00 | 38 | 1036.7 |
| 20260505174126 | 26 | 185 | 6.4 | 8.0 | 0.00 | 0.00 | 0.00 | 39 | 1036.5 |
| 20260505173125 | 25 | 331 | 19.3 | 27.4 | 0.00 | 0.00 | 0.00 | 39 | 1036.8 |
| 20260505172120 | 25 | 319 | 17.7 | 20.9 | 0.00 | 0.00 | 0.00 | 40 | 1036.4 |
| 20260505171118 | 25 | 33 | 11.3 | 12.9 | 0.00 | 0.00 | 0.00 | 40 | 1036.4 |
| 20260505170117 | 25 | 289 | 14.5 | 17.7 | 0.00 | 0.00 | 0.00 | 41 | 1036.9 |
| 20260505165114 | 25 | 342 | 20.9 | 27.4 | 0.00 | 0.00 | 0.00 | 42 | 1036.8 |
| 20260505164113 | 24 | 202 | 14.5 | 17.7 | 0.00 | 0.00 | 0.00 | 43 | 1037.0 |
| 20260505163108 | 24 | 355 | 8.0 | 9.7 | 0.00 | 0.00 | 0.00 | 43 | 1037.0 |
| 20260505162103 | 25 | 302 | 12.9 | 14.5 | 0.00 | 0.00 | 0.00 | 43 | 1037.1 |
| 20260505161103 | 24 | 323 | 8.0 | 9.7 | 0.00 | 0.00 | 0.00 | 47 | 1037.4 |
| 20260505160104 | 24 | 40 | 4.8 | 4.8 | 0.00 | 0.00 | 0.00 | 44 | 1037.5 |
| 20260505153100 | 23 | 111 | 11.3 | 14.5 | 0.00 | 0.00 | 0.00 | 44 | 1037.7 |
| 20260505152058 | 23 | 274 | 6.4 | 8.0 | 0.00 | 0.00 | 0.00 | 45 | 1037.6 |
| 20260505151057 | 23 | 295 | 8.0 | 11.3 | 0.00 | 0.00 | 0.00 | 45 | 1037.7 |
| 20260505125036 | 17 | 110 | 1.6 | 1.6 | 0.00 | 0.00 | 0.00 | 73 | 1038.7 |
| 20260505124034 | 16 | 100 | 0.0 | 1.6 | 0.00 | 0.00 | 0.00 | 74 | 1038.7 |
| 20260505123032 | 15 | 103 | 1.6 | 1.6 | 0.00 | 0.00 | 0.00 | 77 | 1038.9 |
| 20260505122032 | 14 | 104 | 0.0 | 0.0 | 0.00 | 0.00 | 0.00 | 81 | 1038.7 |
| 20260505121031 | 13 | 102 | 0.0 | 1.6 | 0.00 | 0.00 | 0.00 | 83 | 1039.0 |
| 20260505120029 | 13 | 102 | 1.6 | 1.6 | 0.00 | 0.00 | 0.00 | 81 | 1039.0 |
| 20260505115028 | 12 | 100 | 0.0 | 0.0 | 0.00 | 0.00 | 0.00 | 86 | 1038.8 |
| 20260505114027 | 12 | 101 | 1.6 | 1.6 | 0.00 | 0.00 | 0.00 | 85 | 1039.0 |
| 20260505113026 | 10 | 100 | 1.6 | 1.6 | 0.00 | 0.00 | 0.00 | 90 | 1038.8 |
| 20260505112020 | 10 | 91 | 0.0 | 0.0 | 0.00 | 0.00 | 0.00 | 94 | 1038.9 |
| 20260505111016 | 9 | 91 | 0.0 | 0.0 | 0.00 | 0.00 | 0.00 | 94 | 1038.6 |
| 20260505102009 | 7 | 90 | 0.0 | 0.0 | 0.00 | 0.00 | 0.00 | 95 | 1038.3 |
| 20260505101009 | 7 | 90 | 1.6 | 1.6 | 0.00 | 0.00 | 0.00 | 95 | 1038.0 |
| 20260505100010 | 7 | 91 | 0.0 | 0.0 | 0.00 | 0.00 | 0.00 | 94 | 1038.1 |
| 20260505095008 | 7 | 91 | 0.0 | 0.0 | 0.00 | 0.00 | 0.00 | 94 | 1038.1 |
| 20260505094006 | 7 | 91 | 0.0 | 0.0 | 0.00 | 0.00 | 0.00 | 94 | 1038.0 |
| 20260505093006 | 7 | 92 | 0.0 | 0.0 | 0.00 | 0.00 | 0.00 | 94 | 1038.0 |
| 20260505092001 | 8 | 92 | 0.0 | 0.0 | 0.00 | 0.00 | 0.00 | 93 | 1037.8 |
| 20260505090957 | 8 | 92 | 0.0 | 0.0 | 0.00 | 0.00 | 0.00 | 93 | 1037.9 |
| 20260505085951 | 8 | 91 | 0.0 | 0.0 | 0.00 | 0.00 | 0.00 | 93 | 1038.1 |
| 20260505084947 | 8 | 92 | 0.0 | 0.0 | 0.00 | 0.00 | 0.00 | 92 | 1037.9 |
| 20260505083943 | 9 | 91 | 0.0 | 0.0 | 0.00 | 0.00 | 0.00 | 92 | 1037.9 |
| 20260505082942 | 9 | 93 | 0.0 | 0.0 | 0.00 | 0.00 | 0.00 | 91 | 1037.8 |
| 20260505081941 | 9 | 85 | 0.0 | 0.0 | 0.00 | 0.00 | 0.00 | 91 | 1038.1 |
| 20260505080940 | 9 | 101 | 0.0 | 0.0 | 0.00 | 0.00 | 0.00 | 90 | 1037.8 |
| 20260505075938 | 9 | 87 | 1.6 | 1.6 | 0.00 | 0.00 | 0.00 | 90 | 1038.1 |
| 20260505074932 | 9 | 87 | 0.0 | 0.0 | 0.00 | 0.00 | 0.00 | 89 | 1037.7 |
| 20260505073932 | 9 | 96 | 1.6 | 1.6 | 0.00 | 0.00 | 0.00 | 88 | 1037.6 |
| 20260505072932 | 10 | 85 | 0.0 | 1.6 | 0.00 | 0.00 | 0.00 | 87 | 1037.4 |
| 20260505071930 | 10 | 94 | 0.0 | 1.6 | 0.00 | 0.00 | 0.00 | 85 | 1037.5 |
| 20260505070930 | 10 | 86 | 0.0 | 0.0 | 0.00 | 0.00 | 0.00 | 84 | 1037.4 |
| 20260505065928 | 10 | 82 | 0.0 | 0.0 | 0.00 | 0.00 | 0.00 | 84 | 1037.6 |
| 20260505064927 | 10 | 101 | 1.6 | 1.6 | 0.00 | 0.00 | 0.00 | 83 | 1037.4 |
| 20260505063923 | 10 | 109 | 1.6 | 3.2 | 0.00 | 0.00 | 0.00 | 82 | 1037.6 |
| 20260505062921 | 10 | 104 | 1.6 | 1.6 | 0.00 | 0.00 | 0.00 | 81 | 1037.8 |
| 20260505061921 | 11 | 104 | 0.0 | 0.0 | 0.00 | 0.00 | 0.00 | 81 | 1037.7 |
| 20260505060917 | 11 | 104 | 1.6 | 1.6 | 0.00 | 0.00 | 0.00 | 80 | 1037.8 |
| 20260505055915 | 11 | 91 | 0.0 | 0.0 | 0.00 | 0.00 | 0.00 | 80 | 1038.0 |
| 20260505054914 | 11 | 102 | 1.6 | 1.6 | 0.00 | 0.00 | 0.00 | 79 | 1037.9 |
| 20260505053910 | 11 | 100 | 0.0 | 0.0 | 0.00 | 0.00 | 0.00 | 78 | 1037.8 |
| 20260505052909 | 11 | 100 | 0.0 | 0.0 | 0.00 | 0.00 | 0.00 | 78 | 1037.8 |
| 20260505051909 | 11 | 98 | 0.0 | 1.6 | 0.00 | 0.00 | 0.00 | 77 | 1038.1 |
| 20260505050904 | 10 | 87 | 0.0 | 0.0 | 0.00 | 0.00 | 0.00 | 78 | 1037.8 |
| 20260505040855 | 12 | 82 | 1.6 | 1.6 | 0.00 | 0.00 | 0.00 | 72 | 1037.4 |
| 20260505035855 | 12 | 91 | 1.6 | 1.6 | 0.00 | 0.00 | 0.00 | 71 | 1037.3 |
| 20260505034855 | 12 | 69 | 1.6 | 3.2 | 0.00 | 0.00 | 0.00 | 70 | 1037.2 |
| 20260505033854 | 13 | 92 | 1.6 | 1.6 | 0.00 | 0.00 | 0.00 | 68 | 1037.3 |
| 20260505032849 | 13 | 87 | 1.6 | 1.6 | 0.00 | 0.00 | 0.00 | 64 | 1037.2 |
| 20260505031848 | 15 | 68 | 3.2 | 3.2 | 0.00 | 0.00 | 0.00 | 58 | 1037.2 |
| 20260505030848 | 17 | 102 | 1.6 | 1.6 | 0.00 | 0.00 | 0.00 | 48 | 1037.3 |
| 20260505025845 | 17 | 96 | 1.6 | 3.2 | 0.00 | 0.00 | 0.00 | 47 | 1037.3 |
| 20260505024841 | 17 | 7 | 4.8 | 8.0 | 0.00 | 0.00 | 0.00 | 47 | 1037.2 |
| 20260505023841 | 18 | 108 | 1.6 | 1.6 | 0.00 | 0.00 | 0.00 | 47 | 1037.4 |
| 20260505022842 | 18 | 87 | 0.0 | 1.6 | 0.00 | 0.00 | 0.00 | 46 | 1037.4 |
| 20260505021842 | 18 | 55 | 1.6 | 4.8 | 0.00 | 0.00 | 0.00 | 46 | 1037.4 |
| 20260505020840 | 18 | 75 | 1.6 | 3.2 | 0.00 | 0.00 | 0.00 | 46 | 1037.4 |
| 20260505015838 | 18 | 106 | 6.4 | 9.7 | 0.00 | 0.00 | 0.00 | 46 | 1037.2 |
| 20260505014838 | 18 | 53 | 6.4 | 9.7 | 0.00 | 0.00 | 0.00 | 45 | 1037.4 |